Time,TemperatureF,DewpointF,PressureIn,WindDirection,WindDirectionDegrees,WindSpeedMPH,WindSpeedGustMPH,Humidity,HourlyPrecipIn,Conditions,Clouds,dailyrainin,SolarRadiationWatts/m^2,SoftwareType,DateUTC
2013-04-10 00:01:00,70.4,57.6,30.07,SW,216,3.0,3.0,64,0.00,,,0.00,0,Wunderground v.1.15,2013-04-10 04:01:00,
2013-04-10 00:02:00,70.3,57.5,30.07,SW,216,3.0,3.0,64,0.00,,,0.00,0,Wunderground v.1.15,2013-04-10 04:02:00,
2013-04-10 00:04:00,70.3,57.5,30.07,SW,216,2.0,3.0,64,0.00,,,0.00,0,Wunderground v.1.15,2013-04-10 04:04:00,
2013-04-10 00:06:00,70.1,57.4,30.07,SW,216,2.0,3.0,64,0.00,,,0.00,0,Wunderground v.1.15,2013-04-10 04:06:00,
2013-04-10 00:14:00,69.8,57.9,30.07,SW,217,3.0,3.0,66,0.00,,,0.00,0,Wunderground v.1.15,2013-04-10 04:14:00,
2013-04-10 00:20:00,69.4,57.5,30.07,SW,219,3.0,8.0,66,0.00,,,0.00,0,Wunderground v.1.15,2013-04-10 04:20:00,
2013-04-10 00:26:00,69.3,57.9,30.07,SW,216,4.0,5.0,67,0.00,,,0.00,0,Wunderground v.1.15,2013-04-10 04:26:00,
2013-04-10 00:32:00,69.1,57.7,30.07,SW,219,3.0,3.0,67,0.00,,,0.00,0,Wunderground v.1.15,2013-04-10 04:32:00,
2013-04-10 00:38:00,68.9,58.3,30.07,SW,230,3.0,5.0,69,0.00,,,0.00,0,Wunderground v.1.15,2013-04-10 04:38:00,
2013-04-10 00:44:00,68.8,58.2,30.07,SW,215,4.0,5.0,69,0.00,,,0.00,0,Wunderground v.1.15,2013-04-10 04:44:00,
2013-04-10 00:50:00,68.6,58.4,30.07,SSW,212,4.0,5.0,70,0.00,,,0.00,0,Wunderground v.1.15,2013-04-10 04:50:00,
2013-04-10 00:56:00,68.4,58.2,30.07,SSW,209,3.0,5.0,70,0.00,,,0.00,0,Wunderground v.1.15,2013-04-10 04:56:00,
2013-04-10 01:02:00,68.3,58.5,30.07,SW,224,3.0,3.0,71,0.00,,,0.00,0,Wunderground v.1.15,2013-04-10 05:02:00,
2013-04-10 01:08:00,68.1,58.3,30.07,SW,217,4.0,7.0,71,0.00,,,0.00,0,Wunderground v.1.15,2013-04-10 05:08:00,
2013-04-10 01:14:00,67.9,58.1,30.06,SW,223,4.0,7.0,71,0.00,,,0.00,0,Wunderground v.1.15,2013-04-10 05:14:00,
2013-04-10 01:21:00,67.8,58.4,30.06,SW,222,3.0,7.0,72,0.00,,,0.00,0,Wunderground v.1.15,2013-04-10 05:21:00,
2013-04-10 01:26:00,67.6,58.2,30.06,SSW,199,3.0,7.0,72,0.00,,,0.00,0,Wunderground v.1.15,2013-04-10 05:26:00,
2013-04-10 01:32:00,67.4,58.1,30.06,SW,219,3.0,4.0,72,0.00,,,0.00,0,Wunderground v.1.15,2013-04-10 05:32:00,
2013-04-10 01:38:00,67.3,58.3,30.06,SW,217,3.0,4.0,73,0.00,,,0.00,0,Wunderground v.1.15,2013-04-10 05:38:00,
2013-04-10 01:44:00,66.9,58.0,30.06,SW,233,4.0,6.0,73,0.00,,,0.00,0,Wunderground v.1.15,2013-04-10 05:44:00,
2013-04-10 01:50:00,66.8,58.2,30.06,SW,216,4.0,4.0,74,0.00,,,0.00,0,Wunderground v.1.15,2013-04-10 05:50:00,
2013-04-10 01:56:00,66.6,58.1,30.06,SSW,200,4.0,6.0,74,0.00,,,0.00,0,Wunderground v.1.15,2013-04-10 05:56:00,
2013-04-10 02:02:00,66.6,58.1,30.06,SSW,205,4.0,4.0,74,0.00,,,0.00,0,Wunderground v.1.15,2013-04-10 06:02:00,
2013-04-10 02:08:00,66.4,57.9,30.06,SW,223,3.0,5.0,74,0.00,,,0.00,0,Wunderground v.1.15,2013-04-10 06:08:00,
2013-04-10 02:14:00,66.3,58.1,30.06,SSW,213,4.0,5.0,75,0.00,,,0.00,0,Wunderground v.1.15,2013-04-10 06:14:00,
2013-04-10 02:20:00,66.1,57.9,30.06,SW,215,4.0,4.0,75,0.00,,,0.00,0,Wunderground v.1.15,2013-04-10 06:20:00,
2013-04-10 02:26:00,65.8,57.7,30.06,SW,223,3.0,4.0,75,0.00,,,0.00,0,Wunderground v.1.15,2013-04-10 06:26:00,
2013-04-10 02:32:00,65.6,57.8,30.05,SSW,213,2.0,2.0,76,0.00,,,0.00,0,Wunderground v.1.15,2013-04-10 06:32:00,
2013-04-10 02:38:00,65.5,57.7,30.05,SSW,213,2.0,3.0,76,0.00,,,0.00,0,Wunderground v.1.15,2013-04-10 06:38:00,
2013-04-10 02:44:00,65.3,57.9,30.05,SW,220,3.0,3.0,77,0.00,,,0.00,0,Wunderground v.1.15,2013-04-10 06:44:00,
2013-04-10 02:50:00,65.2,57.8,30.05,WSW,243,3.0,5.0,77,0.00,,,0.00,0,Wunderground v.1.15,2013-04-10 06:50:00,
2013-04-10 02:58:00,65.0,57.6,30.05,SW,219,3.0,4.0,77,0.00,,,0.00,0,Wunderground v.1.15,2013-04-10 06:58:00,
2013-04-10 03:04:00,64.8,57.4,30.05,SW,219,3.0,3.0,77,0.00,,,0.00,0,Wunderground v.1.15,2013-04-10 07:04:00,
2013-04-10 03:10:00,64.5,57.5,30.05,SW,232,2.0,5.0,78,0.00,,,0.00,0,Wunderground v.1.15,2013-04-10 07:10:00,
2013-04-10 03:16:00,64.5,57.5,30.05,SW,230,3.0,11.0,78,0.00,,,0.00,0,Wunderground v.1.15,2013-04-10 07:16:00,
2013-04-10 03:22:00,64.3,57.6,30.05,SSW,210,3.0,3.0,79,0.00,,,0.00,0,Wunderground v.1.15,2013-04-10 07:22:00,
2013-04-10 03:28:00,64.3,57.6,30.05,SW,219,3.0,5.0,79,0.00,,,0.00,0,Wunderground v.1.15,2013-04-10 07:28:00,
2013-04-10 03:34:00,64.2,57.5,30.06,SW,224,2.0,5.0,79,0.00,,,0.00,0,Wunderground v.1.15,2013-04-10 07:34:00,
2013-04-10 03:40:00,64.0,57.7,30.06,SW,230,3.0,5.0,80,0.00,,,0.00,0,Wunderground v.1.15,2013-04-10 07:40:00,
2013-04-10 03:46:00,64.0,57.7,30.06,WSW,247,3.0,5.0,80,0.00,,,0.00,0,Wunderground v.1.15,2013-04-10 07:46:00,
2013-04-10 03:52:00,63.9,57.6,30.06,West,265,3.0,6.0,80,0.00,,,0.00,0,Wunderground v.1.15,2013-04-10 07:52:00,
2013-04-10 03:58:00,63.7,57.8,30.06,SW,224,3.0,6.0,81,0.00,,,0.00,0,Wunderground v.1.15,2013-04-10 07:58:00,
2013-04-10 04:04:00,63.5,57.6,30.06,SW,220,3.0,3.0,81,0.00,,,0.00,0,Wunderground v.1.15,2013-04-10 08:04:00,
2013-04-10 04:10:00,63.5,57.9,30.06,SW,233,3.0,3.0,82,0.00,,,0.00,0,Wunderground v.1.15,2013-04-10 08:10:00,
2013-04-10 04:16:00,63.4,57.8,30.06,SSW,208,3.0,5.0,82,0.00,,,0.00,0,Wunderground v.1.15,2013-04-10 08:16:00,
2013-04-10 04:22:00,63.4,57.8,30.06,SW,216,3.0,4.0,82,0.00,,,0.00,0,Wunderground v.1.15,2013-04-10 08:22:00,
2013-04-10 04:28:00,63.4,58.1,30.06,SW,224,3.0,5.0,83,0.00,,,0.00,0,Wunderground v.1.15,2013-04-10 08:28:00,
2013-04-10 04:34:00,63.2,57.9,30.06,SW,224,1.0,3.0,83,0.00,,,0.00,0,Wunderground v.1.15,2013-04-10 08:34:00,
2013-04-10 04:40:00,63.2,57.9,30.06,SW,224,1.0,1.0,83,0.00,,,0.00,0,Wunderground v.1.15,2013-04-10 08:40:00,
2013-04-10 04:46:00,63.1,57.9,30.06,SW,224,1.0,2.0,83,0.00,,,0.00,0,Wunderground v.1.15,2013-04-10 08:46:00,
2013-04-10 04:52:00,62.9,58.0,30.06,SW,224,1.0,2.0,84,0.00,,,0.00,0,Wunderground v.1.15,2013-04-10 08:52:00,
2013-04-10 04:58:00,62.9,58.0,30.06,SW,224,2.0,2.0,84,0.00,,,0.00,0,Wunderground v.1.15,2013-04-10 08:58:00,
2013-04-10 05:04:00,62.7,57.8,30.07,SW,224,1.0,2.0,84,0.00,,,0.00,0,Wunderground v.1.15,2013-04-10 09:04:00,
2013-04-10 05:10:00,62.7,58.1,30.07,SW,224,2.0,2.0,85,0.00,,,0.00,0,Wunderground v.1.15,2013-04-10 09:10:00,
2013-04-10 05:18:00,62.6,58.0,30.07,SW,215,2.0,3.0,85,0.00,,,0.00,0,Wunderground v.1.15,2013-04-10 09:18:00,
2013-04-10 05:24:00,62.4,57.8,30.07,SSW,196,1.0,2.0,85,0.00,,,0.00,0,Wunderground v.1.15,2013-04-10 09:24:00,
2013-04-10 05:30:00,62.4,58.2,30.07,SSW,213,1.0,2.0,86,0.00,,,0.00,0,Wunderground v.1.15,2013-04-10 09:30:00,
2013-04-10 05:36:00,62.3,58.1,30.07,SSW,213,1.0,2.0,86,0.00,,,0.00,0,Wunderground v.1.15,2013-04-10 09:36:00,
2013-04-10 05:42:00,62.3,58.1,30.07,SSW,213,1.0,2.0,86,0.00,,,0.00,0,Wunderground v.1.15,2013-04-10 09:42:00,
2013-04-10 05:48:00,62.1,58.2,30.07,SSW,213,1.0,2.0,87,0.00,,,0.00,0,Wunderground v.1.15,2013-04-10 09:48:00,
2013-04-10 05:54:00,61.8,57.9,30.07,SSW,213,0.0,1.0,87,0.00,,,0.00,0,Wunderground v.1.15,2013-04-10 09:54:00,
2013-04-10 06:00:00,61.6,57.7,30.08,SSW,213,1.0,2.0,87,0.00,,,0.00,0,Wunderground v.1.15,2013-04-10 10:00:00,
2013-04-10 06:06:00,61.5,57.9,30.08,SSW,213,1.0,2.0,88,0.00,,,0.00,0,Wunderground v.1.15,2013-04-10 10:06:00,
2013-04-10 06:12:00,61.3,57.7,30.08,SSW,213,2.0,2.0,88,0.00,,,0.00,0,Wunderground v.1.15,2013-04-10 10:12:00,
2013-04-10 06:18:00,61.3,58.0,30.08,SSW,213,2.0,2.0,89,0.00,,,0.00,0,Wunderground v.1.15,2013-04-10 10:18:00,
2013-04-10 06:24:00,61.3,58.0,30.08,SSW,213,2.0,2.0,89,0.00,,,0.00,0,Wunderground v.1.15,2013-04-10 10:24:00,
2013-04-10 06:31:00,61.0,57.7,30.08,SSW,213,1.0,2.0,89,0.00,,,0.00,0,Wunderground v.1.15,2013-04-10 10:31:00,
2013-04-10 06:36:00,60.9,57.6,30.08,SSW,213,1.0,1.0,89,0.00,,,0.00,0,Wunderground v.1.15,2013-04-10 10:36:00,
2013-04-10 06:44:00,60.5,57.6,30.08,SSW,213,1.0,1.0,90,0.00,,,0.00,0,Wunderground v.1.15,2013-04-10 10:44:00,
2013-04-10 06:51:00,60.2,57.3,30.08,SSW,213,1.0,1.0,90,0.00,,,0.00,7,Wunderground v.1.15,2013-04-10 10:51:00,
2013-04-10 06:58:00,60.1,57.2,30.08,WSW,251,2.0,2.0,90,0.00,,,0.00,7,Wunderground v.1.15,2013-04-10 10:58:00,
2013-04-10 07:04:00,60.1,57.5,30.09,SW,229,2.0,2.0,91,0.00,,,0.00,16,Wunderground v.1.15,2013-04-10 11:04:00,
2013-04-10 07:10:00,60.5,58.5,30.09,WSW,243,2.0,5.0,93,0.00,,,0.00,21,Wunderground v.1.15,2013-04-10 11:10:00,
2013-04-10 07:16:00,61.0,59.0,30.09,SSW,199,3.0,5.0,93,0.00,,,0.00,28,Wunderground v.1.15,2013-04-10 11:16:00,
2013-04-10 07:22:00,61.3,59.3,30.09,West,263,3.0,5.0,93,0.00,,,0.00,26,Wunderground v.1.15,2013-04-10 11:22:00,
2013-04-10 07:28:00,61.8,59.5,30.09,SW,226,4.0,5.0,92,0.00,,,0.00,30,Wunderground v.1.15,2013-04-10 11:28:00,
2013-04-10 07:34:00,62.1,59.7,30.09,WSW,240,5.0,7.0,92,0.00,,,0.00,48,Wunderground v.1.15,2013-04-10 11:34:00,
2013-04-10 07:40:00,62.4,59.7,30.09,SW,230,5.0,5.0,91,0.00,,,0.00,53,Wunderground v.1.15,2013-04-10 11:40:00,
2013-04-10 07:46:00,62.9,60.2,30.09,SW,224,5.0,7.0,91,0.00,,,0.00,76,Wunderground v.1.15,2013-04-10 11:46:00,
2013-04-10 07:52:00,63.4,60.4,30.09,WSW,237,5.0,6.0,90,0.00,,,0.00,51,Wunderground v.1.15,2013-04-10 11:52:00,
2013-04-10 07:58:00,63.9,60.3,30.09,WSW,237,6.0,7.0,88,0.00,,,0.00,150,Wunderground v.1.15,2013-04-10 11:58:00,
2013-04-10 08:04:00,64.2,60.2,30.09,WSW,241,5.0,7.0,87,0.00,,,0.00,137,Wunderground v.1.15,2013-04-10 12:04:00,
2013-04-10 08:10:00,64.5,60.2,30.09,WSW,253,4.0,4.0,86,0.00,,,0.00,188,Wunderground v.1.15,2013-04-10 12:10:00,
2013-04-10 08:18:00,65.2,60.6,30.09,West,260,5.0,7.0,85,0.00,,,0.00,213,Wunderground v.1.15,2013-04-10 12:18:00,
2013-04-10 08:24:00,66.4,61.1,30.09,SW,233,5.0,8.0,83,0.00,,,0.00,238,Wunderground v.1.15,2013-04-10 12:24:00,
2013-04-10 08:30:00,67.6,61.2,30.09,WSW,251,6.0,12.0,80,0.00,,,0.00,260,Wunderground v.1.15,2013-04-10 12:30:00,
2013-04-10 08:36:00,68.6,61.5,30.09,West,278,7.0,7.0,78,0.00,,,0.00,282,Wunderground v.1.15,2013-04-10 12:36:00,
2013-04-10 08:42:00,69.3,61.4,30.09,West,280,7.0,7.0,76,0.00,,,0.00,303,Wunderground v.1.15,2013-04-10 12:42:00,
2013-04-10 08:48:00,70.1,61.8,30.09,WSW,250,6.0,13.0,75,0.00,,,0.00,322,Wunderground v.1.15,2013-04-10 12:48:00,
2013-04-10 08:54:00,70.6,61.9,30.09,SW,236,7.0,11.0,74,0.00,,,0.00,347,Wunderground v.1.15,2013-04-10 12:54:00,
2013-04-10 09:00:00,71.1,61.6,30.09,SW,226,7.0,7.0,72,0.00,,,0.00,364,Wunderground v.1.15,2013-04-10 13:00:00,
2013-04-10 09:06:00,71.8,61.9,30.09,WNW,292,6.0,7.0,71,0.00,,,0.00,382,Wunderground v.1.15,2013-04-10 13:06:00,
2013-04-10 09:12:00,72.0,61.7,30.09,West,265,8.0,12.0,70,0.00,,,0.00,403,Wunderground v.1.15,2013-04-10 13:12:00,
2013-04-10 09:18:00,72.5,62.2,30.09,WSW,240,8.0,12.0,70,0.00,,,0.00,424,Wunderground v.1.15,2013-04-10 13:18:00,
2013-04-10 09:24:00,73.2,62.4,30.09,SSW,205,8.0,10.0,69,0.00,,,0.00,438,Wunderground v.1.15,2013-04-10 13:24:00,
2013-04-10 09:30:00,73.5,62.3,30.09,WNW,294,10.0,10.0,68,0.00,,,0.00,484,Wunderground v.1.15,2013-04-10 13:30:00,
2013-04-10 09:36:00,74.2,61.7,30.09,WNW,287,8.0,9.0,65,0.00,,,0.00,512,Wunderground v.1.15,2013-04-10 13:36:00,
2013-04-10 09:42:00,73.2,61.2,30.09,WSW,258,8.0,8.0,66,0.00,,,0.00,199,Wunderground v.1.15,2013-04-10 13:42:00,
2013-04-10 09:48:00,73.2,62.4,30.09,SSW,205,6.0,9.0,69,0.00,,,0.00,238,Wunderground v.1.15,2013-04-10 13:48:00,
2013-04-10 09:54:00,73.5,61.9,30.09,SW,223,7.0,7.0,67,0.00,,,0.00,315,Wunderground v.1.15,2013-04-10 13:54:00,
2013-04-10 10:00:00,74.2,61.7,30.09,WSW,243,7.0,7.0,65,0.00,,,0.00,315,Wunderground v.1.15,2013-04-10 14:00:00,
2013-04-10 10:06:00,75.3,62.7,30.09,WSW,247,7.0,12.0,65,0.00,,,0.00,554,Wunderground v.1.15,2013-04-10 14:06:00,
2013-04-10 10:12:00,76.5,63.0,30.09,WSW,241,5.0,6.0,63,0.00,,,0.00,609,Wunderground v.1.15,2013-04-10 14:12:00,
2013-04-10 10:18:00,77.2,62.7,30.09,WSW,244,5.0,6.0,61,0.00,,,0.00,616,Wunderground v.1.15,2013-04-10 14:18:00,
2013-04-10 10:24:00,77.2,62.2,30.09,SSW,210,7.0,12.0,60,0.00,,,0.00,630,Wunderground v.1.15,2013-04-10 14:24:00,
2013-04-10 10:30:00,77.6,62.1,30.08,SSW,200,7.0,7.0,59,0.00,,,0.00,646,Wunderground v.1.15,2013-04-10 14:30:00,
2013-04-10 10:38:00,78.3,62.3,30.08,West,270,7.0,7.0,58,0.00,,,0.00,665,Wunderground v.1.15,2013-04-10 14:38:00,
2013-04-10 10:44:00,78.3,61.3,30.08,SW,233,6.0,7.0,56,0.00,,,0.00,684,Wunderground v.1.15,2013-04-10 14:44:00,
2013-04-10 10:50:00,78.8,62.8,30.08,SW,222,6.0,6.0,58,0.00,,,0.00,697,Wunderground v.1.15,2013-04-10 14:50:00,
2013-04-10 10:56:00,79.2,62.1,30.08,WSW,246,6.0,7.0,56,0.00,,,0.00,714,Wunderground v.1.15,2013-04-10 14:56:00,
2013-04-10 11:02:00,79.8,62.7,30.08,West,261,5.0,5.0,56,0.00,,,0.00,727,Wunderground v.1.15,2013-04-10 15:02:00,
2013-04-10 11:08:00,79.8,61.7,30.08,West,264,5.0,10.0,54,0.00,,,0.00,739,Wunderground v.1.15,2013-04-10 15:08:00,
2013-04-10 11:14:00,80.1,63.0,30.08,SW,230,4.0,5.0,56,0.00,,,0.00,755,Wunderground v.1.15,2013-04-10 15:14:00,
2013-04-10 11:21:00,81.1,63.4,30.08,SW,236,4.0,4.0,55,0.00,,,0.00,765,Wunderground v.1.15,2013-04-10 15:21:00,
2013-04-10 11:28:00,81.4,63.2,30.08,SW,236,5.0,8.0,54,0.00,,,0.00,783,Wunderground v.1.15,2013-04-10 15:28:00,
2013-04-10 11:34:00,81.8,63.0,30.08,SW,216,5.0,8.0,53,0.00,,,0.00,794,Wunderground v.1.15,2013-04-10 15:34:00,
2013-04-10 11:41:00,82.0,62.1,30.08,West,264,5.0,8.0,51,0.00,,,0.00,801,Wunderground v.1.15,2013-04-10 15:41:00,
2013-04-10 11:48:00,82.6,62.1,30.07,WSW,241,4.0,12.0,50,0.00,,,0.00,816,Wunderground v.1.15,2013-04-10 15:48:00,
2013-04-10 11:54:00,83.0,61.3,30.07,WNW,301,4.0,4.0,48,0.00,,,0.00,818,Wunderground v.1.15,2013-04-10 15:54:00,
2013-04-10 12:00:00,83.4,62.2,30.07,SW,215,3.0,5.0,49,0.00,,,0.00,830,Wunderground v.1.15,2013-04-10 16:00:00,
2013-04-10 12:06:00,83.6,61.8,30.07,SW,224,5.0,11.0,48,0.00,,,0.00,832,Wunderground v.1.15,2013-04-10 16:06:00,
2013-04-10 12:14:00,84.0,61.6,30.07,West,260,7.0,8.0,47,0.00,,,0.00,845,Wunderground v.1.15,2013-04-10 16:14:00,
2013-04-10 12:20:00,84.1,60.5,30.07,WNW,282,4.0,6.0,45,0.00,,,0.00,845,Wunderground v.1.15,2013-04-10 16:20:00,
2013-04-10 12:26:00,84.3,63.1,30.07,WNW,298,5.0,6.0,49,0.00,,,0.00,848,Wunderground v.1.15,2013-04-10 16:26:00,
2013-04-10 12:32:00,84.5,63.8,30.06,WSW,254,6.0,14.0,50,0.00,,,0.00,866,Wunderground v.1.15,2013-04-10 16:32:00,
2013-04-10 12:38:00,84.0,62.2,30.06,West,281,8.0,14.0,48,0.00,,,0.00,862,Wunderground v.1.15,2013-04-10 16:38:00,
2013-04-10 12:44:00,83.8,62.0,30.05,WNW,298,7.0,9.0,48,0.00,,,0.00,867,Wunderground v.1.15,2013-04-10 16:44:00,
2013-04-10 12:50:00,84.0,59.7,30.05,NW,326,6.0,6.0,44,0.00,,,0.00,867,Wunderground v.1.15,2013-04-10 16:50:00,
2013-04-10 12:58:00,84.9,61.8,30.05,SSW,213,6.0,9.0,46,0.00,,,0.00,871,Wunderground v.1.15,2013-04-10 16:58:00,
2013-04-10 13:04:00,84.9,59.2,30.04,WSW,248,6.0,11.0,42,0.00,,,0.00,874,Wunderground v.1.15,2013-04-10 17:04:00,
2013-04-10 13:11:00,84.7,60.4,30.04,WSW,257,7.0,7.0,44,0.00,,,0.00,873,Wunderground v.1.15,2013-04-10 17:11:00,
2013-04-10 13:18:00,84.9,61.8,30.04,SW,232,8.0,12.0,46,0.00,,,0.00,866,Wunderground v.1.15,2013-04-10 17:18:00,
2013-04-10 13:24:00,85.7,60.0,30.04,SW,219,7.0,10.0,42,0.00,,,0.00,876,Wunderground v.1.15,2013-04-10 17:24:00,
2013-04-10 13:30:00,85.9,60.1,30.04,WSW,241,8.0,11.0,42,0.00,,,0.00,874,Wunderground v.1.15,2013-04-10 17:30:00,
2013-04-10 13:38:00,86.5,62.6,30.04,West,260,7.0,10.0,45,0.00,,,0.00,864,Wunderground v.1.15,2013-04-10 17:38:00,
2013-04-10 13:44:00,86.3,59.1,30.03,WSW,254,4.0,14.0,40,0.00,,,0.00,871,Wunderground v.1.15,2013-04-10 17:44:00,
2013-04-10 13:50:00,86.5,60.0,30.03,SW,222,7.0,14.0,41,0.00,,,0.00,869,Wunderground v.1.15,2013-04-10 17:50:00,
2013-04-10 13:56:00,86.7,59.5,30.03,WSW,241,6.0,7.0,40,0.00,,,0.00,857,Wunderground v.1.15,2013-04-10 17:56:00,
2013-04-10 14:02:00,85.9,58.8,30.02,WSW,251,6.0,7.0,40,0.00,,,0.00,862,Wunderground v.1.15,2013-04-10 18:02:00,
2013-04-10 14:08:00,86.1,58.2,30.02,West,260,8.0,11.0,39,0.00,,,0.00,846,Wunderground v.1.15,2013-04-10 18:08:00,
2013-04-10 14:14:00,86.3,59.1,30.02,SW,229,9.0,12.0,40,0.00,,,0.00,830,Wunderground v.1.15,2013-04-10 18:14:00,
2013-04-10 14:20:00,87.4,60.8,30.02,SSW,209,8.0,8.0,41,0.00,,,0.00,836,Wunderground v.1.15,2013-04-10 18:20:00,
2013-04-10 14:26:00,87.2,58.5,30.02,SSW,203,7.0,8.0,38,0.00,,,0.00,832,Wunderground v.1.15,2013-04-10 18:26:00,
2013-04-10 14:32:00,87.2,60.6,30.01,SW,222,5.0,6.0,41,0.00,,,0.00,834,Wunderground v.1.15,2013-04-10 18:32:00,
2013-04-10 14:38:00,87.8,57.5,30.01,SW,227,7.0,12.0,36,0.00,,,0.00,822,Wunderground v.1.15,2013-04-10 18:38:00,
2013-04-10 14:44:00,87.6,58.1,30.01,West,263,9.0,10.0,37,0.00,,,0.00,822,Wunderground v.1.15,2013-04-10 18:44:00,
2013-04-10 14:50:00,87.8,57.5,30.01,SW,220,8.0,8.0,36,0.00,,,0.00,818,Wunderground v.1.15,2013-04-10 18:50:00,
2013-04-10 14:56:00,87.8,56.7,30.01,WSW,244,7.0,12.0,35,0.00,,,0.00,794,Wunderground v.1.15,2013-04-10 18:56:00,
2013-04-10 15:02:00,87.8,58.3,30.00,WSW,241,8.0,17.0,37,0.00,,,0.00,788,Wunderground v.1.15,2013-04-10 19:02:00,
2013-04-10 15:08:00,88.2,60.1,30.00,SW,226,7.0,17.0,39,0.00,,,0.00,765,Wunderground v.1.15,2013-04-10 19:08:00,
2013-04-10 15:14:00,88.0,58.5,29.99,SW,216,7.0,11.0,37,0.00,,,0.00,760,Wunderground v.1.15,2013-04-10 19:14:00,
2013-04-10 15:20:00,87.8,58.3,29.99,WSW,239,8.0,8.0,37,0.00,,,0.00,741,Wunderground v.1.15,2013-04-10 19:20:00,
2013-04-10 15:28:00,88.2,58.6,29.99,NW,319,8.0,8.0,37,0.00,,,0.00,727,Wunderground v.1.15,2013-04-10 19:28:00,
2013-04-10 15:34:00,88.4,58.1,29.98,West,267,8.0,12.0,36,0.00,,,0.00,714,Wunderground v.1.15,2013-04-10 19:34:00,
2013-04-10 15:40:00,88.2,58.6,29.98,SSW,213,8.0,12.0,37,0.00,,,0.00,699,Wunderground v.1.15,2013-04-10 19:40:00,
2013-04-10 15:48:00,88.4,60.3,29.97,SW,224,8.0,12.0,39,0.00,,,0.00,679,Wunderground v.1.15,2013-04-10 19:48:00,
2013-04-10 15:54:00,88.4,58.8,29.97,SW,226,7.0,8.0,37,0.00,,,0.00,674,Wunderground v.1.15,2013-04-10 19:54:00,
2013-04-10 16:00:00,88.4,58.1,29.96,West,265,7.0,12.0,36,0.00,,,0.00,656,Wunderground v.1.15,2013-04-10 20:00:00,
2013-04-10 16:08:00,88.4,58.1,29.96,WSW,251,7.0,12.0,36,0.00,,,0.00,623,Wunderground v.1.15,2013-04-10 20:08:00,
2013-04-10 16:14:00,88.0,56.9,29.96,SW,233,7.0,15.0,35,0.00,,,0.00,616,Wunderground v.1.15,2013-04-10 20:14:00,
2013-04-10 16:20:00,88.2,59.4,29.96,West,263,8.0,8.0,38,0.00,,,0.00,593,Wunderground v.1.15,2013-04-10 20:20:00,
2013-04-10 16:28:00,87.8,57.5,29.96,WSW,244,8.0,10.0,36,0.00,,,0.00,567,Wunderground v.1.15,2013-04-10 20:28:00,
2013-04-10 16:34:00,87.6,57.3,29.95,SW,223,7.0,10.0,36,0.00,,,0.00,560,Wunderground v.1.15,2013-04-10 20:34:00,
2013-04-10 16:40:00,88.2,58.6,29.95,WSW,254,7.0,12.0,37,0.00,,,0.00,538,Wunderground v.1.15,2013-04-10 20:40:00,
2013-04-10 16:48:00,88.0,56.9,29.95,SSW,213,10.0,12.0,35,0.00,,,0.00,489,Wunderground v.1.15,2013-04-10 20:48:00,
2013-04-10 16:54:00,87.6,57.3,29.95,SW,229,9.0,12.0,36,0.00,,,0.00,287,Wunderground v.1.15,2013-04-10 20:54:00,
2013-04-10 17:00:00,87.6,58.1,29.95,SSW,206,8.0,12.0,37,0.00,,,0.00,449,Wunderground v.1.15,2013-04-10 21:00:00,
2013-04-10 17:06:00,87.2,57.0,29.95,SW,233,10.0,13.0,36,0.00,,,0.00,283,Wunderground v.1.15,2013-04-10 21:06:00,
2013-04-10 17:12:00,87.0,56.0,29.95,SW,216,9.0,10.0,35,0.00,,,0.00,373,Wunderground v.1.15,2013-04-10 21:12:00,
2013-04-10 17:18:00,86.7,57.3,29.94,SSW,213,7.0,10.0,37,0.00,,,0.00,290,Wunderground v.1.15,2013-04-10 21:18:00,
2013-04-10 17:24:00,87.2,57.8,29.94,WSW,247,7.0,11.0,37,0.00,,,0.00,282,Wunderground v.1.15,2013-04-10 21:24:00,
2013-04-10 17:31:00,87.0,57.6,29.94,SW,215,7.0,7.0,37,0.00,,,0.00,362,Wunderground v.1.15,2013-04-10 21:31:00,
2013-04-10 17:36:00,86.7,56.6,29.94,WSW,237,6.0,13.0,36,0.00,,,0.00,230,Wunderground v.1.15,2013-04-10 21:36:00,
2013-04-10 17:42:00,86.5,56.4,29.94,SSW,198,8.0,8.0,36,0.00,,,0.00,199,Wunderground v.1.15,2013-04-10 21:42:00,
2013-04-10 17:48:00,86.5,56.4,29.95,SW,226,8.0,9.0,36,0.00,,,0.00,188,Wunderground v.1.15,2013-04-10 21:48:00,
2013-04-10 17:54:00,86.3,56.2,29.95,SSW,213,8.0,10.0,36,0.00,,,0.00,250,Wunderground v.1.15,2013-04-10 21:54:00,
2013-04-10 18:00:00,86.3,57.7,29.95,West,267,7.0,7.0,38,0.00,,,0.00,208,Wunderground v.1.15,2013-04-10 22:00:00,
2013-04-10 18:06:00,86.5,58.6,29.95,SW,236,5.0,11.0,39,0.00,,,0.00,213,Wunderground v.1.15,2013-04-10 22:06:00,
2013-04-10 18:12:00,86.5,-99.9,29.95,SSW,202,6.0,7.0,255,0.00,,,0.00,199,Wunderground v.1.15,2013-04-10 22:12:00,
2013-04-10 18:18:00,86.5,58.6,29.95,SSW,193,6.0,7.0,39,0.00,,,0.00,194,Wunderground v.1.15,2013-04-10 22:18:00,
2013-04-10 18:24:00,86.1,59.0,29.95,SW,236,6.0,8.0,40,0.00,,,0.00,171,Wunderground v.1.15,2013-04-10 22:24:00,
2013-04-10 18:30:00,85.5,58.4,29.95,SSW,212,7.0,8.0,40,0.00,,,0.00,153,Wunderground v.1.15,2013-04-10 22:30:00,
2013-04-10 18:36:00,84.9,58.6,29.95,SSW,200,7.0,14.0,41,0.00,,,0.00,135,Wunderground v.1.15,2013-04-10 22:36:00,
2013-04-10 18:42:00,84.7,58.4,29.95,WSW,256,7.0,7.0,41,0.00,,,0.00,118,Wunderground v.1.15,2013-04-10 22:42:00,
2013-04-10 18:48:00,84.5,58.9,29.94,SW,217,6.0,7.0,42,0.00,,,0.00,104,Wunderground v.1.15,2013-04-10 22:48:00,
2013-04-10 18:54:00,84.1,59.2,29.94,WSW,257,6.0,6.0,43,0.00,,,0.00,53,Wunderground v.1.15,2013-04-10 22:54:00,
2013-04-10 19:00:00,83.6,58.1,29.94,SW,234,7.0,7.0,42,0.00,,,0.00,42,Wunderground v.1.15,2013-04-10 23:00:00,
2013-04-10 19:08:00,83.2,58.4,29.94,WSW,253,7.0,10.0,43,0.00,,,0.00,40,Wunderground v.1.15,2013-04-10 23:08:00,
2013-04-10 19:14:00,82.6,58.5,29.94,SW,220,7.0,10.0,44,0.00,,,0.00,28,Wunderground v.1.15,2013-04-10 23:14:00,
2013-04-10 19:20:00,82.2,58.7,29.94,SSE,158,6.0,6.0,45,0.00,,,0.00,25,Wunderground v.1.15,2013-04-10 23:20:00,
2013-04-10 19:26:00,81.8,58.4,29.94,SSW,210,5.0,7.0,45,0.00,,,0.00,18,Wunderground v.1.15,2013-04-10 23:26:00,
2013-04-10 19:32:00,81.4,58.6,29.94,SSW,205,7.0,7.0,46,0.00,,,0.00,14,Wunderground v.1.15,2013-04-10 23:32:00,
2013-04-10 19:38:00,81.1,59.0,29.94,SW,226,5.0,7.0,47,0.00,,,0.00,11,Wunderground v.1.15,2013-04-10 23:38:00,
2013-04-10 19:44:00,80.7,59.2,29.94,WSW,237,5.0,10.0,48,0.00,,,0.00,7,Wunderground v.1.15,2013-04-10 23:44:00,
2013-04-10 19:50:00,80.3,58.8,29.94,SSW,192,5.0,10.0,48,0.00,,,0.00,5,Wunderground v.1.15,2013-04-10 23:50:00,
2013-04-10 19:56:00,80.1,59.2,29.94,SW,223,4.0,6.0,49,0.00,,,0.00,0,Wunderground v.1.15,2013-04-10 23:56:00,
2013-04-10 20:02:00,79.8,59.5,29.95,SW,227,5.0,7.0,50,0.00,,,0.00,0,Wunderground v.1.15,2013-04-11 00:02:00,
2013-04-10 20:08:00,79.6,59.3,29.95,SW,219,6.0,7.0,50,0.00,,,0.00,0,Wunderground v.1.15,2013-04-11 00:08:00,
2013-04-10 20:14:00,79.2,59.5,29.94,SW,220,5.0,5.0,51,0.00,,,0.00,0,Wunderground v.1.15,2013-04-11 00:14:00,
2013-04-10 20:20:00,78.8,59.7,29.94,SSW,192,4.0,5.0,52,0.00,,,0.00,0,Wunderground v.1.15,2013-04-11 00:20:00,
2013-04-10 20:26:00,78.6,59.5,29.94,SSW,213,5.0,11.0,52,0.00,,,0.00,0,Wunderground v.1.15,2013-04-11 00:26:00,
2013-04-10 20:32:00,78.5,59.4,29.95,SSW,212,6.0,6.0,52,0.00,,,0.00,0,Wunderground v.1.15,2013-04-11 00:32:00,
2013-04-10 20:38:00,78.3,59.8,29.95,SW,223,5.0,6.0,53,0.00,,,0.00,0,Wunderground v.1.15,2013-04-11 00:38:00,
2013-04-10 20:44:00,78.1,59.6,29.95,SW,232,4.0,5.0,53,0.00,,,0.00,0,Wunderground v.1.15,2013-04-11 00:44:00,
2013-04-10 20:50:00,77.7,59.7,29.95,SSE,152,4.0,5.0,54,0.00,,,0.00,0,Wunderground v.1.15,2013-04-11 00:50:00,
2013-04-10 20:58:00,77.6,60.2,29.95,SSW,212,4.0,5.0,55,0.00,,,0.00,0,Wunderground v.1.15,2013-04-11 00:58:00,
2013-04-10 21:04:00,77.2,59.8,29.95,SW,215,4.0,7.0,55,0.00,,,0.00,0,Wunderground v.1.15,2013-04-11 01:04:00,
2013-04-10 21:10:00,77.0,60.1,29.95,SW,224,4.0,4.0,56,0.00,,,0.00,0,Wunderground v.1.15,2013-04-11 01:10:00,
2013-04-10 21:16:00,76.8,59.9,29.96,SW,219,3.0,5.0,56,0.00,,,0.00,0,Wunderground v.1.15,2013-04-11 01:16:00,
2013-04-10 21:22:00,76.7,60.3,29.96,WSW,244,4.0,5.0,57,0.00,,,0.00,0,Wunderground v.1.15,2013-04-11 01:22:00,
2013-04-10 21:28:00,76.5,60.1,29.96,SW,215,4.0,5.0,57,0.00,,,0.00,0,Wunderground v.1.15,2013-04-11 01:28:00,
2013-04-10 21:34:00,76.1,60.2,29.96,SW,220,4.0,6.0,58,0.00,,,0.00,0,Wunderground v.1.15,2013-04-11 01:34:00,
2013-04-10 21:40:00,76.0,60.6,29.96,SW,220,3.0,3.0,59,0.00,,,0.00,0,Wunderground v.1.15,2013-04-11 01:40:00,
2013-04-10 21:48:00,75.6,60.7,29.96,SW,236,4.0,6.0,60,0.00,,,0.00,0,Wunderground v.1.15,2013-04-11 01:48:00,
2013-04-10 21:54:00,75.4,60.5,29.96,SW,232,4.0,4.0,60,0.00,,,0.00,0,Wunderground v.1.15,2013-04-11 01:54:00,
2013-04-10 22:00:00,75.1,60.7,29.96,SW,223,4.0,4.0,61,0.00,,,0.00,0,Wunderground v.1.15,2013-04-11 02:00:00,
2013-04-10 22:06:00,75.1,60.7,29.96,SW,232,5.0,7.0,61,0.00,,,0.00,0,Wunderground v.1.15,2013-04-11 02:06:00,
2013-04-10 22:12:00,75.1,60.7,29.96,SW,219,5.0,10.0,61,0.00,,,0.00,0,Wunderground v.1.15,2013-04-11 02:12:00,
2013-04-10 22:18:00,75.1,60.7,29.95,WSW,254,5.0,10.0,61,0.00,,,0.00,0,Wunderground v.1.15,2013-04-11 02:18:00,
2013-04-10 22:24:00,74.9,60.5,29.95,SW,226,5.0,7.0,61,0.00,,,0.00,0,Wunderground v.1.15,2013-04-11 02:24:00,
2013-04-10 22:30:00,74.7,60.8,29.95,SW,226,5.0,7.0,62,0.00,,,0.00,0,Wunderground v.1.15,2013-04-11 02:30:00,
2013-04-10 22:38:00,74.6,60.7,29.95,SSW,213,5.0,7.0,62,0.00,,,0.00,0,Wunderground v.1.15,2013-04-11 02:38:00,
2013-04-10 22:44:00,74.4,61.0,29.95,SW,222,5.0,12.0,63,0.00,,,0.00,0,Wunderground v.1.15,2013-04-11 02:44:00,
2013-04-10 22:50:00,74.2,61.2,29.95,SSW,212,7.0,13.0,64,0.00,,,0.00,0,Wunderground v.1.15,2013-04-11 02:50:00,
2013-04-10 22:58:00,73.7,61.2,29.95,SSW,193,7.0,13.0,65,0.00,,,0.00,0,Wunderground v.1.15,2013-04-11 02:58:00,
2013-04-10 23:04:00,73.3,61.7,29.95,SW,224,6.0,7.0,67,0.00,,,0.00,0,Wunderground v.1.15,2013-04-11 03:04:00,
2013-04-10 23:10:00,73.0,61.8,29.95,SW,223,7.0,7.0,68,0.00,,,0.00,0,Wunderground v.1.15,2013-04-11 03:10:00,
2013-04-10 23:16:00,72.7,61.9,29.95,SW,222,7.0,7.0,69,0.00,,,0.00,0,Wunderground v.1.15,2013-04-11 03:16:00,
2013-04-10 23:22:00,72.3,62.0,29.95,SW,215,6.0,10.0,70,0.00,,,0.00,0,Wunderground v.1.15,2013-04-11 03:22:00,
2013-04-10 23:28:00,72.1,61.8,29.95,SSW,210,7.0,10.0,70,0.00,,,0.00,0,Wunderground v.1.15,2013-04-11 03:28:00,
2013-04-10 23:34:00,71.8,61.5,29.95,SW,229,7.0,8.0,70,0.00,,,0.00,0,Wunderground v.1.15,2013-04-11 03:34:00,
2013-04-10 23:40:00,71.6,61.3,29.95,SW,217,7.0,7.0,70,0.00,,,0.00,0,Wunderground v.1.15,2013-04-11 03:40:00,
2013-04-10 23:46:00,71.5,61.2,29.95,SW,215,6.0,7.0,70,0.00,,,0.00,0,Wunderground v.1.15,2013-04-11 03:46:00,
2013-04-10 23:52:00,71.1,60.8,29.95,SW,223,5.0,5.0,70,0.00,,,0.00,0,Wunderground v.1.15,2013-04-11 03:52:00,
2013-04-10 23:58:00,70.9,60.6,29.95,SSW,202,5.0,6.0,70,0.00,,,0.00,0,Wunderground v.1.15,2013-04-11 03:58:00,